Weather Roundup
Issued by NWS Corpus Christi, TX

Home | Current Version | Previous Version | Text Only | Print | Product List | Glossary On
Versions: 1 2 3 4 5 6 7 8 9 10 11 12 13 14 15 16 17 18 19 20 21 22 23 24 25 26 27 28 29 30 31 32 33 34 35 36 37 38 39 40 41 42 43 44 45 46 47 48 49 50
000
ASUS44 KCRP 071210
HRRCRP

SOUTH TEXAS REGIONAL WEATHER ROUNDUP
NATIONAL WEATHER SERVICE CORPUS CHRISTI TX
700 AM CDT TUE JUL 07 2015


TXZ229>244-071300-
...CORPUS CHRISTI AREA OBSERVATIONS...

CITY           SKY/WX    TMP DP  RH WIND       PRES   REMARKS
CORPUS CHRISTI CLOUDY    80  77  90 SE14      29.96R
NAS CORPUS CHR CLOUDY    81  77  88 SE15      29.96S
ROCKPORT       LGT RAIN  82  77  84 S10G17    29.96S HX  90
KINGSVILLE NAS MOCLDY    80  79  96 SE10      29.95R
ALICE          MOCLDY    79  76  90 SE14G29   29.94S
FALFURRIAS     MOCLDY    78  76  92 SE9       29.94R
$$

...VICTORIA AREA OBSERVATIONS...

CITY           SKY/WX    TMP DP  RH WIND       PRES   REMARKS
VICTORIA       MOCLDY    80  79  96 S8        30.00R FOG
BEEVILLE       CLOUDY   N/A N/A N/A SE7       29.97R HAZE
PLEASANTON     CLOUDY    77  73  88 SE6       29.97S
SAN ANTONIO    CLOUDY    79  73  82 S13       29.99R
$$

...LAREDO AREA OBSERVATIONS...

CITY           SKY/WX    TMP DP  RH WIND       PRES   REMARKS
LAREDO         CLOUDY    78  71  79 SE13      29.93S
COTULLA        CLOUDY    77  72  84 SE10      29.94R
DEL RIO        MOCLDY    78  72  81 E9        29.92R
MCALLEN        PTCLDY    81  76  84 SE13      29.95S
HEBBRONVILLE     N/A     76  73  91 SE13G18   29.95R
$$

...OTHER TEXAS OBSERVATIONS...

CITY           SKY/WX    TMP DP  RH WIND       PRES   REMARKS
BROWNSVILLE    PTCLDY    79  77  94 SE9       29.97F
HOUSTON        CLOUDY    81  78  91 S7        30.03R
COL. STATION   CLOUDY    79  76  90 SE9       30.01S
AUSTIN         CLOUDY    77  76  96 S7        29.99R
WACO           CLOUDY    78  74  87 S12       29.98R
FORT WORTH     CLOUDY    80  73  79 S14       29.96R
WICHITA FALLS  CLOUDY    76  70  82 MISG      29.93R
LUBBOCK        CLOUDY    68  67  96 N10       30.04R FOG
EL PASO        PTCLDY    75  61  61 N6        30.07R
$$

...MARINE OBSERVATIONS...

STATION/POSITION TIME  SKY/WX   TEMP    WIND        PRES    VSBY  WAVE   SWELL
                                AIR SEA DIR/SP/G                  HT/PER HT/PER
                 (UTC)          (F)     (DEG/KT/KT) (MB)    (MI)  (FT/S) (FT/S)
PORT ARANSAS     1200            81 82  150/ 13/ 14 1015.3R
BUOY 90 E PORT A NOT AVBL
BUOY 45 SE BAFFI 1150            83 83  170/ 16/ 17 1014.5R         4/ 6
BUOY 200 E PT IS 1150            84 84  140/ 16/ 17 1017.2F         3/ 7   2/ 7
BUOY 15 E GALVES 1150            84 84  170/ 14/ 16 1016.4R         4/ 6
$$



USA.gov is the U.S. government's official web portal to all federal, state and local government web resources and services.